Location: Observatorio Astronomico Bellanoche
(41.2340°N, 103.6610°W)
Time: 16:17:02
(UTC-06:00)

Tiangong 2 - Visible Passes

Search period start: 19 June 2018 00:00
Search period end: 29 June 2018 00:00
Orbit: 291 x 297 km, 42.8° (Epoch: 19 June)

Date Brightness Start Highest point End Pass type
(mag) Time Alt. Az. Time Alt. Az. Time Alt. Az.
26 Jun 3.0 04:15:33 10° S 04:16:43 13° SSE 04:17:59 10° ESE visible
27 Jun 2.1 04:20:43 15° SSW 04:22:07 23° SSE 04:24:15 10° E visible
28 Jun 1.1 04:25:44 16° SW 04:27:29 43° SSE 04:29:56 10° E visible
